SWA3421 KDAL-KMCO

Flight info

Callsign SWA3421
Flight time 1h 55m
Altitude 37000
Route LNDRE5 ZALEA DOOMS LBY CEW J2 DEFUN GRNCH5
Aircraft B38M/M-SDE1FGHILORVWXY/HB1

Departure

Time 2026-05-06 21:44
Airport Dallas Love Field (KDAL)

Arrival

Time 2026-05-06 23:39
Airport Orlando International Airport (KMCO)
Time Latitude Longitude Altitude Speed Heading
2026-05-06 20:54 32.84555 -96.84826 483 ft 0 kts
2026-05-06 21:09 32.84554 -96.84826 483 ft 1 kts
2026-05-06 21:09 32.84539 -96.84827 483 ft 2 kts
2026-05-06 21:10 32.84524 -96.84827 483 ft 2 kts
2026-05-06 21:10 32.84509 -96.84827 483 ft 1 kts 18°
2026-05-06 21:10 32.84503 -96.84831 482 ft 0 kts 72°
2026-05-06 21:10 32.84503 -96.84840 482 ft 0 kts 105°
2026-05-06 21:11 32.84504 -96.84847 482 ft 1 kts 89°
2026-05-06 21:11 32.84504 -96.84848 482 ft 0 kts 89°
2026-05-06 21:12 32.84504 -96.84847 482 ft 0 kts 89°
2026-05-06 21:12 32.84504 -96.84836 482 ft 1 kts 89°
2026-05-06 21:13 32.84504 -96.84824 483 ft 1 kts 89°
2026-05-06 21:13 32.84504 -96.84815 483 ft 2 kts 89°
2026-05-06 21:13 32.84505 -96.84789 483 ft 3 kts 89°
2026-05-06 21:13 32.84506 -96.84753 484 ft 4 kts 88°
2026-05-06 21:14 32.84506 -96.84711 485 ft 5 kts 88°
2026-05-06 21:14 32.84507 -96.84663 486 ft 6 kts 88°
2026-05-06 21:14 32.84530 -96.84608 486 ft 9 kts 47°
2026-05-06 21:14 32.84571 -96.84531 486 ft 12 kts 117°
2026-05-06 21:15 32.84505 -96.84445 487 ft 13 kts 135°
2026-05-06 21:15 32.84440 -96.84370 487 ft 12 kts 136°
2026-05-06 21:15 32.84376 -96.84300 487 ft 13 kts 136°
2026-05-06 21:15 32.84305 -96.84218 487 ft 15 kts 135°
2026-05-06 21:16 32.84224 -96.84123 487 ft 17 kts 136°
2026-05-06 21:16 32.84156 -96.84137 486 ft 5 kts 207°
2026-05-06 21:16 32.84114 -96.84121 485 ft 7 kts 139°
2026-05-06 21:16 32.84099 -96.84074 486 ft 5 kts 73°
2026-05-06 21:17 32.84103 -96.84064 486 ft 0 kts 56°
2026-05-06 21:26 32.84108 -96.84057 487 ft 4 kts 52°
2026-05-06 21:27 32.84110 -96.84055 487 ft 0 kts 52°
2026-05-06 21:42 32.84110 -96.84054 487 ft 0 kts 52°
2026-05-06 21:43 32.84110 -96.84052 487 ft 1 kts 52°
2026-05-06 21:43 32.84142 -96.84009 488 ft 8 kts 46°
2026-05-06 21:43 32.84178 -96.83964 489 ft 6 kts 46°
2026-05-06 21:43 32.84210 -96.83940 490 ft 6 kts
2026-05-06 21:44 32.84373 -96.84107 491 ft 74 kts 315°
2026-05-06 21:44 32.84958 -96.84783 489 ft 155 kts 316°
2026-05-06 21:44 32.85852 -96.85776 1007 ft 180 kts 320°
2026-05-06 21:44 32.86739 -96.86706 1805 ft 174 kts 322°
2026-05-06 21:45 32.87845 -96.87413 2381 ft 187 kts 354°
2026-05-06 21:45 32.89114 -96.87015 2963 ft 199 kts 37°
2026-05-06 21:45 32.89946 -96.85651 3405 ft 221 kts 68°
2026-05-06 21:45 32.90064 -96.83731 3937 ft 245 kts 99°
2026-05-06 21:46 32.89262 -96.81921 4694 ft 256 kts 135°
2026-05-06 21:46 32.88281 -96.81033 5330 ft 256 kts 150°
2026-05-06 21:46 32.86705 -96.80005 6155 ft 262 kts 155°
2026-05-06 21:46 32.85078 -96.78934 6868 ft 276 kts 153°
2026-05-06 21:47 32.83403 -96.77724 7620 ft 287 kts 151°
2026-05-06 21:47 32.81710 -96.76434 8537 ft 290 kts 151°
2026-05-06 21:47 32.79996 -96.75113 9408 ft 295 kts 152°
2026-05-06 21:47 32.78268 -96.73785 10275 ft 298 kts 153°
2026-05-06 21:48 32.76489 -96.72429 10792 ft 313 kts 153°
2026-05-06 21:48 32.74595 -96.70992 11332 ft 327 kts 153°
2026-05-06 21:48 32.72619 -96.69484 11744 ft 345 kts 152°
2026-05-06 21:48 32.70710 -96.67631 12149 ft 369 kts 139°
2026-05-06 21:49 32.69175 -96.65025 12509 ft 396 kts 120°
2026-05-06 21:49 32.68321 -96.61794 12810 ft 421 kts 102°
2026-05-06 21:49 32.68088 -96.58283 13101 ft 438 kts 95°
2026-05-06 21:49 32.68015 -96.54620 13601 ft 445 kts 92°
2026-05-06 21:50 32.68144 -96.50923 14173 ft 451 kts 88°
2026-05-06 21:50 32.68408 -96.47182 14647 ft 458 kts 87°
2026-05-06 21:50 32.68740 -96.43389 15228 ft 462 kts 86°
2026-05-06 21:50 32.69090 -96.39548 15726 ft 468 kts 86°
2026-05-06 21:51 32.69427 -96.35701 16203 ft 473 kts 88°
2026-05-06 21:51 32.69604 -96.31772 16748 ft 474 kts 94°
2026-05-06 21:51 32.69539 -96.27856 17242 ft 476 kts 97°
2026-05-06 21:51 32.69311 -96.23863 17665 ft 481 kts 99°
2026-05-06 21:52 32.69008 -96.19878 18139 ft 485 kts 100°
2026-05-06 21:52 32.68677 -96.15839 18644 ft 488 kts 100°
2026-05-06 21:52 32.68348 -96.11797 18955 ft 495 kts 100°
2026-05-06 21:52 32.68031 -96.07696 19607 ft 494 kts 99°
2026-05-06 21:53 32.67727 -96.03606 20017 ft 500 kts 99°
2026-05-06 21:53 32.67430 -95.99444 20419 ft 506 kts 99°
2026-05-06 21:53 32.67136 -95.95242 20928 ft 508 kts 99°
2026-05-06 21:53 32.66848 -95.91048 21404 ft 511 kts 99°
2026-05-06 21:54 32.66557 -95.86796 21840 ft 515 kts 98°
2026-05-06 21:54 32.66268 -95.82552 22160 ft 522 kts 99°
2026-05-06 21:54 32.65966 -95.78200 22556 ft 526 kts 99°
2026-05-06 21:54 32.65655 -95.73860 23009 ft 528 kts 99°
2026-05-06 21:55 32.65342 -95.69443 23272 ft 535 kts 99°
2026-05-06 21:55 32.65047 -95.65010 23764 ft 536 kts 99°
2026-05-06 21:55 32.64749 -95.60611 24217 ft 538 kts 99°
2026-05-06 21:55 32.64436 -95.56139 24660 ft 540 kts 99°
2026-05-06 21:56 32.64120 -95.51632 24927 ft 546 kts 99°
2026-05-06 21:56 32.63805 -95.47163 25305 ft 549 kts 99°
2026-05-06 21:56 32.63473 -95.42590 25699 ft 551 kts 99°
2026-05-06 21:56 32.63138 -95.38083 26044 ft 555 kts 99°
2026-05-06 21:57 32.62786 -95.33417 26268 ft 561 kts 100°
2026-05-06 21:57 32.62436 -95.28773 26582 ft 564 kts 100°
2026-05-06 21:57 32.62088 -95.24121 26984 ft 564 kts 100°
2026-05-06 21:57 32.61737 -95.19441 27439 ft 563 kts 100°
2026-05-06 21:58 32.61388 -95.14809 27931 ft 561 kts 99°
2026-05-06 21:58 32.61045 -95.10224 28416 ft 560 kts 100°
2026-05-06 21:58 32.60695 -95.05587 28825 ft 560 kts 100°
2026-05-06 21:58 32.60344 -95.00977 29283 ft 559 kts 100°
2026-05-06 21:59 32.59994 -94.96382 29730 ft 558 kts 100°
2026-05-06 21:59 32.59642 -94.91787 30187 ft 557 kts 99°
2026-05-06 21:59 32.59292 -94.87175 30707 ft 554 kts 100°
2026-05-06 21:59 32.58900 -94.82645 31191 ft 550 kts 102°
2026-05-06 22:00 32.58336 -94.78138 31720 ft 544 kts 106°
2026-05-06 22:00 32.57546 -94.73817 32222 ft 537 kts 111°
2026-05-06 22:00 32.56538 -94.69550 32818 ft 528 kts 114°
2026-05-06 22:00 32.55409 -94.65382 33196 ft 528 kts 115°
2026-05-06 22:01 32.54216 -94.61253 33350 ft 532 kts 116°
2026-05-06 22:01 32.52988 -94.57109 33601 ft 535 kts 116°
2026-05-06 22:01 32.51745 -94.52927 34033 ft 535 kts 117°
2026-05-06 22:01 32.50495 -94.48695 34493 ft 534 kts 116°
2026-05-06 22:02 32.49283 -94.44556 34927 ft 534 kts 116°
2026-05-06 22:02 32.48068 -94.40375 35368 ft 533 kts 116°
2026-05-06 22:02 32.46862 -94.36205 35575 ft 537 kts 116°
2026-05-06 22:02 32.45647 -94.31995 35863 ft 538 kts 117°
2026-05-06 22:03 32.44435 -94.27772 36175 ft 539 kts 117°
2026-05-06 22:03 32.43241 -94.23602 36560 ft 537 kts 116°
2026-05-06 22:03 32.42036 -94.19391 36746 ft 540 kts 116°
2026-05-06 22:03 32.40821 -94.15142 36915 ft 543 kts 116°
2026-05-06 22:04 32.38386 -94.06655 36929 ft 541 kts 116°
2026-05-06 22:04 32.35968 -93.98230 36933 ft 539 kts 116°
2026-05-06 22:05 32.33536 -93.89815 36931 ft 540 kts 116°
2026-05-06 22:05 32.31117 -93.81474 36937 ft 538 kts 116°
2026-05-06 22:06 32.28668 -93.73048 36938 ft 537 kts 116°
2026-05-06 22:06 32.26239 -93.64698 36937 ft 535 kts 116°
2026-05-06 22:07 32.23819 -93.56406 36932 ft 535 kts 116°
2026-05-06 22:07 32.21539 -93.47965 36924 ft 538 kts 110°
2026-05-06 22:08 32.19966 -93.39244 36924 ft 546 kts 105°
2026-05-06 22:08 32.18771 -93.30354 36916 ft 542 kts 104°
2026-05-06 22:09 32.17690 -93.21559 36921 ft 543 kts 104°
2026-05-06 22:09 32.16563 -93.12695 36914 ft 543 kts 103°
2026-05-06 22:10 32.15391 -93.03818 36912 ft 542 kts 104°
2026-05-06 22:10 32.14207 -92.95050 36913 ft 542 kts 104°
2026-05-06 22:11 32.13006 -92.86239 36911 ft 541 kts 104°
2026-05-06 22:11 32.11789 -92.77424 36910 ft 543 kts 104°
2026-05-06 22:12 32.10563 -92.68601 36910 ft 544 kts 104°
2026-05-06 22:12 32.09346 -92.59822 36913 ft 543 kts 103°
2026-05-06 22:13 32.08112 -92.50952 36912 ft 542 kts 104°
2026-05-06 22:13 32.06887 -92.42204 36909 ft 542 kts 104°
2026-05-06 22:14 32.05640 -92.33346 36908 ft 545 kts 104°
2026-05-06 22:14 32.04400 -92.24587 36912 ft 542 kts 104°
2026-05-06 22:15 32.03134 -92.15752 36903 ft 542 kts 104°
2026-05-06 22:15 32.01875 -92.06982 36907 ft 542 kts 105°
2026-05-06 22:16 32.00609 -91.98186 36905 ft 542 kts 104°
2026-05-06 22:16 31.99334 -91.89381 36905 ft 543 kts 104°
2026-05-06 22:17 31.98050 -91.80553 36910 ft 541 kts 104°
2026-05-06 22:17 31.96779 -91.71841 36905 ft 541 kts 104°
2026-05-06 22:18 31.96134 -91.67461 37029 ft 538 kts 104°
2026-05-06 22:18 31.95496 -91.63130 37411 ft 536 kts 104°
2026-05-06 22:18 31.94859 -91.58791 38019 ft 530 kts 104°
2026-05-06 22:18 31.94237 -91.54553 38626 ft 523 kts 104°
2026-05-06 22:19 31.93623 -91.50390 39297 ft 516 kts 104°
2026-05-06 22:19 31.93012 -91.46265 39991 ft 507 kts 104°
2026-05-06 22:19 31.92401 -91.42156 40745 ft 498 kts 104°
2026-05-06 22:19 31.91802 -91.38133 40896 ft 499 kts 104°
2026-05-06 22:20 31.90600 -91.30093 40907 ft 504 kts 105°
2026-05-06 22:20 31.89363 -91.21922 40907 ft 509 kts 104°
2026-05-06 22:21 31.87980 -91.13665 40908 ft 511 kts 109°
2026-05-06 22:21 31.86055 -91.05535 40905 ft 514 kts 112°
2026-05-06 22:22 31.83946 -90.97462 40904 ft 519 kts 112°
2026-05-06 22:22 31.81816 -90.89291 40890 ft 520 kts 111°
2026-05-06 22:23 31.79736 -90.81147 40889 ft 519 kts 111°
2026-05-06 22:23 31.77682 -90.73010 40894 ft 520 kts 111°
2026-05-06 22:24 31.75624 -90.64812 40899 ft 519 kts 111°
2026-05-06 22:24 31.73585 -90.56699 40904 ft 516 kts 111°
2026-05-06 22:25 31.71528 -90.48559 40909 ft 518 kts 111°
2026-05-06 22:25 31.69472 -90.40452 40912 ft 519 kts 111°
2026-05-06 22:26 31.67407 -90.32322 40899 ft 517 kts 111°
2026-05-06 22:26 31.65336 -90.24188 40905 ft 518 kts 111°
2026-05-06 22:27 31.63260 -90.16074 40907 ft 518 kts 111°
2026-05-06 22:27 31.61179 -90.07964 40902 ft 518 kts 111°
2026-05-06 22:28 31.59087 -89.99834 40905 ft 518 kts 111°
2026-05-06 22:28 31.57848 -89.95034 40904 ft 518 kts 111°
2026-05-06 22:29 31.56214 -89.88711 40906 ft 517 kts 111°
2026-05-06 22:29 31.54111 -89.80605 40905 ft 519 kts 111°
2026-05-06 22:30 31.52002 -89.72497 40906 ft 519 kts 110°
2026-05-06 22:30 31.49895 -89.64408 40904 ft 519 kts 111°
2026-05-06 22:31 31.47776 -89.56301 40904 ft 517 kts 110°
2026-05-06 22:31 31.45658 -89.48204 40912 ft 519 kts 110°
2026-05-06 22:32 31.43539 -89.40153 40923 ft 517 kts 111°
2026-05-06 22:32 31.41430 -89.32137 40932 ft 518 kts 110°
2026-05-06 22:33 31.39575 -89.23972 40931 ft 519 kts 107°
2026-05-06 22:33 31.37908 -89.15747 40934 ft 520 kts 106°
2026-05-06 22:34 31.36229 -89.07504 40924 ft 521 kts 107°
2026-05-06 22:34 31.34509 -88.99265 40921 ft 519 kts 107°
2026-05-06 22:35 31.32761 -88.91065 40920 ft 519 kts 107°
2026-05-06 22:35 31.30986 -88.82822 40921 ft 519 kts 107°
2026-05-06 22:36 31.29205 -88.74588 40921 ft 519 kts 107°
2026-05-06 22:36 31.27419 -88.66363 40925 ft 521 kts 107°
2026-05-06 22:37 31.25631 -88.58128 40922 ft 520 kts 107°
2026-05-06 22:37 31.23842 -88.49919 40926 ft 520 kts 107°
2026-05-06 22:38 31.20170 -88.33183 40927 ft 520 kts 108°
2026-05-06 22:39 31.18668 -88.26372 40927 ft 519 kts 107°
2026-05-06 22:39 31.16641 -88.18246 40911 ft 514 kts 122°
2026-05-06 22:40 31.14729 -88.14855 40928 ft 496 kts 142°
2026-05-06 22:40 31.12176 -88.12132 40939 ft 487 kts 149°
2026-05-06 22:40 31.06789 -88.07393 40926 ft 480 kts 152°
2026-05-06 22:41 30.98646 -88.00384 40931 ft 482 kts 151°
2026-05-06 22:42 30.93322 -87.95631 40941 ft 484 kts 150°
2026-05-06 22:42 30.87918 -87.90716 40943 ft 491 kts 150°
2026-05-06 22:43 30.82591 -87.85667 40942 ft 503 kts 143°
2026-05-06 22:43 30.80238 -87.82553 40954 ft 517 kts 130°
2026-05-06 22:43 30.78465 -87.78876 40959 ft 528 kts 115°
2026-05-06 22:43 30.77119 -87.73301 40969 ft 537 kts 100°
2026-05-06 22:44 30.76820 -87.70440 40970 ft 539 kts 94°
2026-05-06 22:44 30.76851 -87.61674 40968 ft 543 kts 86°
2026-05-06 22:45 30.77510 -87.52868 40965 ft 545 kts 83°
2026-05-06 22:45 30.78233 -87.44052 40971 ft 544 kts 84°
2026-05-06 22:46 30.78858 -87.35224 40981 ft 544 kts 84°
2026-05-06 22:46 30.79403 -87.26464 40984 ft 545 kts 86°
2026-05-06 22:47 30.79910 -87.17612 40985 ft 544 kts 85°
2026-05-06 22:47 30.80399 -87.08830 40987 ft 545 kts 86°
2026-05-06 22:48 30.80885 -87.00017 40986 ft 545 kts 86°
2026-05-06 22:48 30.81368 -86.91176 40981 ft 545 kts 85°
2026-05-06 22:49 30.81845 -86.82340 40970 ft 544 kts 85°
2026-05-06 22:49 30.82320 -86.73531 40983 ft 545 kts 85°
2026-05-06 22:50 30.82750 -86.64716 40991 ft 543 kts 88°
2026-05-06 22:50 30.82644 -86.54385 40990 ft 544 kts 92°
2026-05-06 22:51 30.82372 -86.46999 40992 ft 544 kts 92°
2026-05-06 22:51 30.82061 -86.38169 40984 ft 545 kts 92°
2026-05-06 22:52 30.81810 -86.29438 40980 ft 544 kts 92°
2026-05-06 22:52 30.81591 -86.20571 40978 ft 544 kts 91°
2026-05-06 22:53 30.81392 -86.11697 40978 ft 545 kts 91°
2026-05-06 22:53 30.81526 -86.02857 40975 ft 544 kts 87°
2026-05-06 22:54 30.81940 -85.94107 40975 ft 543 kts 86°
2026-05-06 22:54 30.82358 -85.85270 40979 ft 544 kts 86°
2026-05-06 22:55 30.82711 -85.76421 40979 ft 544 kts 87°
2026-05-06 22:55 30.83012 -85.67632 40982 ft 544 kts 87°
2026-05-06 22:56 30.83295 -85.58775 40984 ft 544 kts 87°
2026-05-06 22:56 30.83571 -85.49947 40984 ft 544 kts 87°
2026-05-06 22:57 30.83842 -85.41116 40982 ft 545 kts 87°
2026-05-06 22:57 30.84107 -85.32311 40987 ft 542 kts 88°
2026-05-06 22:58 30.84368 -85.23518 40991 ft 544 kts 87°
2026-05-06 22:58 30.84626 -85.14690 40990 ft 545 kts 87°
2026-05-06 22:59 30.84879 -85.05840 40993 ft 545 kts 87°
2026-05-06 22:59 30.85122 -84.97014 40995 ft 544 kts 88°
2026-05-06 23:00 30.85356 -84.88197 40994 ft 545 kts 88°
2026-05-06 23:00 30.85590 -84.79315 40990 ft 545 kts 88°
2026-05-06 23:01 30.85817 -84.70470 40986 ft 544 kts 87°
2026-05-06 23:01 30.85928 -84.66037 40668 ft 546 kts 87°
2026-05-06 23:01 30.86033 -84.61833 39827 ft 548 kts 87°
2026-05-06 23:01 30.86105 -84.58937 39156 ft 549 kts 87°
2026-05-06 23:02 30.86215 -84.54489 38189 ft 550 kts 87°
2026-05-06 23:02 30.86321 -84.50081 37323 ft 549 kts 87°
2026-05-06 23:02 30.86424 -84.45660 37010 ft 541 kts 88°
2026-05-06 23:03 30.86595 -84.38269 36988 ft 545 kts 87°
2026-05-06 23:03 30.86801 -84.29354 36994 ft 549 kts 88°
2026-05-06 23:04 30.86989 -84.20487 37002 ft 548 kts 88°
2026-05-06 23:04 30.87173 -84.11591 36999 ft 548 kts 88°
2026-05-06 23:05 30.87354 -84.02717 37007 ft 547 kts 87°
2026-05-06 23:05 30.87530 -83.93801 37013 ft 547 kts 87°
2026-05-06 23:06 30.87703 -83.84917 37014 ft 547 kts 88°
2026-05-06 23:06 30.87816 -83.78802 37011 ft 547 kts 88°
2026-05-06 23:07 30.87865 -83.76039 37012 ft 547 kts 88°
2026-05-06 23:07 30.87980 -83.69624 37008 ft 547 kts 88°
2026-05-06 23:08 30.88077 -83.63940 37007 ft 547 kts 88°
2026-05-06 23:08 30.88196 -83.56956 37003 ft 547 kts 87°
2026-05-06 23:09 30.88343 -83.48012 37004 ft 547 kts 88°
2026-05-06 23:09 30.88481 -83.39202 37009 ft 547 kts 88°
2026-05-06 23:10 30.88613 -83.30386 37012 ft 545 kts 88°
2026-05-06 23:10 30.88741 -83.21572 37012 ft 546 kts 88°
2026-05-06 23:11 30.88864 -83.12711 37010 ft 546 kts 88°
2026-05-06 23:11 30.88976 -83.03850 37014 ft 546 kts 88°
2026-05-06 23:12 30.88481 -82.94981 37014 ft 546 kts 102°
2026-05-06 23:12 30.87463 -82.90736 37016 ft 543 kts 113°
2026-05-06 23:12 30.85903 -82.86801 37013 ft 540 kts 122°
2026-05-06 23:13 30.81750 -82.79526 36999 ft 533 kts 135°
2026-05-06 23:13 30.76391 -82.73624 37003 ft 523 kts 147°
2026-05-06 23:14 30.70632 -82.68481 37002 ft 522 kts 149°
2026-05-06 23:14 30.64801 -82.63468 37003 ft 521 kts 149°
2026-05-06 23:15 30.58991 -82.58414 37006 ft 520 kts 148°
2026-05-06 23:15 30.53185 -82.53281 37001 ft 524 kts 148°
2026-05-06 23:16 30.47356 -82.48079 37005 ft 524 kts 147°
2026-05-06 23:16 30.41553 -82.42884 37004 ft 524 kts 147°
2026-05-06 23:17 30.35794 -82.37734 36994 ft 525 kts 147°
2026-05-06 23:17 30.32882 -82.35135 36718 ft 525 kts 147°
2026-05-06 23:17 30.29998 -82.32558 36378 ft 515 kts 148°
2026-05-06 23:17 30.27158 -82.30022 35880 ft 507 kts 148°
2026-05-06 23:18 30.24393 -82.27573 36262 ft 499 kts 150°
2026-05-06 23:18 30.18409 -82.23552 36336 ft 495 kts 168°
2026-05-06 23:19 30.11769 -82.21672 35966 ft 493 kts 177°
2026-05-06 23:19 30.08337 -82.20997 35159 ft 494 kts 179°
2026-05-06 23:19 30.04942 -82.20390 34268 ft 493 kts 179°
2026-05-06 23:19 30.01569 -82.19802 33389 ft 494 kts 179°
2026-05-06 23:20 29.98123 -82.19196 32555 ft 496 kts 178°
2026-05-06 23:20 29.94683 -82.18578 31773 ft 500 kts 178°
2026-05-06 23:20 29.91238 -82.17940 30992 ft 500 kts 178°
2026-05-06 23:20 29.87803 -82.17287 30214 ft 501 kts 178°
2026-05-06 23:21 29.84340 -82.16615 29434 ft 504 kts 177°
2026-05-06 23:21 29.80912 -82.15942 28663 ft 503 kts 177°
2026-05-06 23:21 29.77473 -82.15258 27884 ft 501 kts 177°
2026-05-06 23:21 29.74005 -82.14568 27105 ft 506 kts 176°
2026-05-06 23:22 29.70521 -82.13875 26328 ft 507 kts 176°
2026-05-06 23:22 29.67041 -82.13183 25556 ft 508 kts 176°
2026-05-06 23:22 29.63529 -82.12483 24779 ft 509 kts 176°
2026-05-06 23:22 29.60072 -82.11793 24119 ft 502 kts 175°
2026-05-06 23:23 29.56640 -82.11106 23845 ft 498 kts 175°
2026-05-06 23:23 29.53198 -82.10420 23834 ft 495 kts 175°
2026-05-06 23:23 29.49817 -82.09747 23834 ft 492 kts 175°
2026-05-06 23:23 29.46399 -82.09068 23833 ft 489 kts 176°
2026-05-06 23:24 29.43042 -82.08403 23830 ft 487 kts 175°
2026-05-06 23:24 29.39727 -82.07749 23603 ft 490 kts 176°
2026-05-06 23:24 29.36326 -82.07077 22967 ft 492 kts 175°
2026-05-06 23:24 29.32989 -82.06259 22190 ft 477 kts 170°
2026-05-06 23:25 29.29864 -82.05143 21425 ft 464 kts 163°
2026-05-06 23:25 29.26956 -82.03705 20665 ft 452 kts 158°
2026-05-06 23:25 29.24173 -82.02085 19882 ft 440 kts 155°
2026-05-06 23:25 29.21506 -82.00412 19135 ft 428 kts 154°
2026-05-06 23:26 29.18955 -81.98762 18388 ft 417 kts 153°
2026-05-06 23:26 29.16476 -81.97142 17631 ft 406 kts 153°
2026-05-06 23:26 29.14023 -81.95545 16903 ft 396 kts 153°
2026-05-06 23:26 29.11636 -81.94009 16155 ft 387 kts 153°
2026-05-06 23:27 29.09311 -81.92520 15422 ft 380 kts 152°
2026-05-06 23:27 29.07103 -81.90928 14692 ft 374 kts 146°
2026-05-06 23:27 29.05069 -81.89120 13952 ft 370 kts 140°
2026-05-06 23:27 29.03145 -81.87157 13200 ft 366 kts 137°
2026-05-06 23:28 29.01315 -81.85171 12471 ft 360 kts 136°
2026-05-06 23:28 28.99537 -81.83208 11717 ft 354 kts 136°
2026-05-06 23:28 28.97866 -81.81173 11095 ft 345 kts 129°
2026-05-06 23:28 28.96405 -81.79055 10882 ft 334 kts 128°
2026-05-06 23:29 28.95017 -81.76993 10519 ft 321 kts 128°
2026-05-06 23:29 28.93658 -81.74967 9850 ft 319 kts 128°
2026-05-06 23:29 28.92313 -81.72964 9201 ft 315 kts 128°
2026-05-06 23:29 28.91003 -81.71017 8900 ft 300 kts 128°
2026-05-06 23:30 28.89752 -81.69160 8891 ft 296 kts 128°
2026-05-06 23:30 28.88486 -81.67285 8798 ft 297 kts 128°
2026-05-06 23:30 28.87213 -81.65400 8345 ft 296 kts 128°
2026-05-06 23:30 28.85958 -81.63542 7586 ft 297 kts 128°
2026-05-06 23:31 28.84695 -81.61674 7027 ft 294 kts 128°
2026-05-06 23:31 28.83460 -81.59847 6847 ft 283 kts 128°
2026-05-06 23:31 28.82253 -81.58063 6890 ft 282 kts 128°
2026-05-06 23:31 28.81048 -81.56283 6870 ft 282 kts 128°
2026-05-06 23:32 28.79844 -81.54502 6909 ft 281 kts 128°
2026-05-06 23:32 28.78668 -81.52720 6732 ft 281 kts 125°
2026-05-06 23:32 28.77588 -81.50871 6210 ft 278 kts 121°
2026-05-06 23:32 28.76562 -81.48992 5836 ft 276 kts 120°
2026-05-06 23:33 28.75560 -81.47156 5784 ft 270 kts 121°
2026-05-06 23:33 28.74550 -81.45335 5783 ft 273 kts 122°
2026-05-06 23:33 28.73511 -81.43489 5682 ft 279 kts 123°
2026-05-06 23:33 28.72226 -81.41866 5243 ft 277 kts 146°
2026-05-06 23:34 28.70476 -81.40882 4892 ft 276 kts 157°
2026-05-06 23:34 28.68755 -81.39927 4715 ft 277 kts 150°
2026-05-06 23:34 28.67157 -81.38765 4427 ft 263 kts 146°
2026-05-06 23:34 28.65686 -81.37572 4038 ft 260 kts 144°
2026-05-06 23:35 28.64199 -81.36347 3985 ft 259 kts 144°
2026-05-06 23:35 28.62730 -81.35161 3997 ft 253 kts 145°
2026-05-06 23:35 28.61278 -81.34006 3860 ft 252 kts 146°
2026-05-06 23:35 28.59831 -81.32864 3379 ft 250 kts 146°
2026-05-06 23:36 28.58423 -81.31752 2965 ft 242 kts 146°
2026-05-06 23:36 28.57058 -81.30673 2884 ft 232 kts 146°
2026-05-06 23:36 28.55722 -81.29800 2856 ft 208 kts 159°
2026-05-06 23:36 28.54329 -81.29583 2580 ft 201 kts 185°
2026-05-06 23:37 28.52941 -81.29752 2167 ft 199 kts 181°
2026-05-06 23:37 28.51640 -81.29735 1973 ft 169 kts 175°
2026-05-06 23:37 28.50499 -81.29698 1812 ft 157 kts 176°
2026-05-06 23:37 28.49420 -81.29694 1586 ft 154 kts 177°
2026-05-06 23:38 28.48341 -81.29697 1322 ft 150 kts 177°
2026-05-06 23:38 28.47308 -81.29686 1138 ft 149 kts 175°
2026-05-06 23:38 28.46269 -81.29655 875 ft 149 kts 175°
2026-05-06 23:38 28.45242 -81.29622 552 ft 146 kts 176°
2026-05-06 23:39 28.44214 -81.29610 295 ft 146 kts 176°
2026-05-06 23:39 28.43213 -81.29588 96 ft 138 kts 176°
2026-05-06 23:39 28.42346 -81.29571 88 ft 94 kts 179°
2026-05-06 23:39 28.41887 -81.29597 89 ft 39 kts 200°
2026-05-06 23:40 28.41849 -81.29618 89 ft 0 kts 214°